Theta_e
298 298 299 308 311 311 315 313 311 324 330 331 332 335 339 337 335 333 335 335 336 334 334 333 332 332 333 335 338 336 336 337 336 337 338 338 338 339 338 337 333 334 332
298 298 298 303 308 309 312 310 311 310 322 330 332 332 336 338 337 336 334 333 333 334 334 332 332 332 333 336 338 336 337 335 336 338 338 339 339 338 335 328 327 330 331
298 297 298 298 299 305 302 303 303 303 305 311 326 331 332 334 335 336 337 334 332 331 332 332 331 331 333 334 336 336 335 334 335 336 337 338 338 335 330 322 327 328 329
299 298 298 297 297 299 299 299 300 299 300 303 306 314 327 331 332 333 334 335 333 332 330 331 332 331 332 332 334 334 334 335 335 335 337 337 336 332 328 331 319 322 323
299 299 299 299 298 297 297 298 298 298 299 299 300 303 306 314 328 329 332 334 333 333 332 332 331 331 331 331 331 333 335 335 335 335 335 332 335 333 331 333 331 324 321
299 299 298 298 298 298 298 297 297 297 298 298 298 299 300 303 306 316 325 330 331 333 333 330 331 331 331 331 330 331 335 336 335 334 334 329 334 332 330 332 332 328 319
298 298 297 297 297 296 297 297 297 297 297 297 297 297 298 299 301 304 309 315 327 329 333 333 331 330 330 330 330 331 334 335 336 334 332 330 334 330 330 329 329 327 314
298 297 297 297 296 295 295 296 296 296 296 297 297 297 297 297 298 299 302 304 309 323 328 333 332 330 330 331 331 331 333 333 336 334 333 330 328 328 329 329 328 325 314
298 297 297 296 296 296 295 295 295 295 295 296 296 296 297 297 297 298 298 299 301 303 320 327 331 329 329 330 331 332 333 332 334 334 333 329 328 328 328 328 328 323 314
298 297 297 296 296 296 296 295 295 295 295 295 295 296 296 297 297 297 297 298 298 300 303 321 328 331 329 329 332 332 333 331 330 330 331 329 329 330 328 327 327 322 321
297 297 297 297 296 296 295 295 295 295 295 295 295 295 295 296 296 296 296 296 297 297 300 304 321 328 331 328 331 332 334 332 330 327 326 329 328 328 328 325 328 321 319
297 298 298 298 297 297 296 295 294 294 294 294 294 294 295 295 295 295 295 296 296 296 297 300 306 319 322 330 332 332 333 333 331 326 324 328 324 326 327 325 328 323 318
298 298 298 298 298 298 297 296 294 293 293 293 293 293 294 294 294 294 295 295 295 296 296 297 300 305 318 325 330 331 333 333 332 327 324 324 322 328 326 325 328 325 323
298 298 299 299 298 298 297 296 294 292 292 292 292 293 293 293 293 293 293 293 293 294 295 295 297 301 307 322 324 329 332 333 333 330 325 326 324 327 325 330 329 326 322
298 299 299 299 299 298 297 296 293 292 292 291 291 291 291 291 291 291 291 292 292 292 293 294 296 298 302 308 321 327 328 333 334 332 328 331 327 326 323 330 331 327 320
298 299 299 299 299 298 297 296 292 291 291 291 291 290 290 290 290 290 291 291 291 291 292 293 294 297 300 307 314 321 321 331 333 333 330 332 333 328 323 329 331 328 322
299 299 299 299 299 298 297 295 292 291 291 290 290 290 290 290 290 290 290 291 291 291 292 293 294 296 299 302 312 317 323 329 330 334 333 330 332 330 326 326 332 330 325
299 299 299 299 299 298 296 293 291 291 290 290 290 290 290 289 289 289 289 290 291 291 292 293 293 294 297 300 305 315 321 323 326 331 332 332 331 332 328 328 331 332 326
299 299 299 299 299 297 296 292 291 290 290 290 290 290 290 289 289 289 289 289 290 290 290 291 292 293 293 299 302 310 314 321 319 329 331 331 331 332 331 328 330 332 328
299 299 299 299 299 297 293 291 290 290 290 290 290 290 290 289 289 289 290 290 290 289 290 290 291 292 292 297 301 306 313 317 318 323 331 330 330 331 331 331 329 332 331
299 299 299 299 297 295 291 291 290 289 290 290 289 289 289 289 289 288 290 290 290 290 290 290 291 291 292 296 302 307 313 315 317 318 324 329 330 329 330 330 331 331 329
300 299 299 298 296 292 291 290 289 289 289 289 289 289 289 289 288 288 289 290 290 290 290 290 290 290 292 294 296 302 308 318 318 319 317 328 326 328 329 331 330 329 329
300 299 299 297 294 291 291 290 289 289 289 289 288 289 289 289 288 288 288 289 289 290 290 289 289 289 291 293 296 295 298 301 310 321 322 325 325 324 326 329 330 330 330
300 299 298 295 292 291 290 290 290 289 289 288 288 288 288 289 288 288 288 288 289 289 288 289 288 290 290 292 295 296 297 298 300 309 322 323 321 323 324 326 329 330 329
300 299 297 293 291 291 290 290 290 289 288 287 288 288 288 288 288 288 288 288 288 288 288 288 288 290 290 291 293 294 297 300 300 301 310 322 323 324 324 326 329 328 326
300 298 296 292 291 291 290 290 290 289 288 286 287 288 288 288 288 288 288 288 288 288 288 287 289 289 290 291 292 293 294 294 296 297 301 310 315 324 322 326 327 328 325
Wind_Speed
34 32 30 28 28 30 28 27 22 16 16 15 14 12 10 10 8 11 12 12 14 15 15 14 13 13 12 12 9 11 10 9 10 10 9 10 11 14 19 22 22 21 23
28 29 27 27 27 28 28 27 26 19 11 13 13 15 14 11 11 12 12 13 15 16 16 16 15 14 13 13 11 12 11 10 9 9 9 9 14 20 22 22 23 24 25
28 30 29 30 29 28 28 29 28 26 21 19 17 17 20 21 12 13 14 15 14 15 16 16 17 16 15 14 12 13 12 11 10 10 12 15 17 19 20 21 23 26 26
27 29 29 31 31 30 30 29 29 29 27 23 20 19 18 23 25 16 16 15 17 16 17 16 16 18 17 16 14 14 14 12 12 13 17 17 18 18 20 21 22 24 25
24 26 27 29 30 30 30 31 31 30 29 28 26 24 21 20 25 24 20 20 19 19 18 17 18 19 19 18 17 16 15 15 15 16 19 19 19 20 21 22 22 23 24
27 28 29 29 28 28 29 30 30 32 31 30 28 27 26 22 22 27 24 23 20 23 21 22 19 21 21 21 20 18 18 18 18 21 21 21 20 22 22 22 22 23 23
29 31 31 31 30 28 27 28 30 30 31 32 31 30 28 27 24 23 27 27 23 21 24 24 25 23 23 21 21 20 20 21 21 23 22 22 21 23 23 24 24 24 24
29 30 31 31 32 30 28 28 28 29 31 31 30 30 30 29 28 26 26 28 24 26 22 28 28 25 25 24 22 22 23 23 24 24 24 23 24 24 24 24 25 25 25
29 31 34 35 35 34 33 33 32 32 32 32 32 30 29 30 28 28 26 26 27 24 27 24 26 29 28 26 25 24 25 25 26 26 26 25 25 26 26 26 26 26 28
29 31 33 34 35 36 35 34 32 32 33 33 34 34 32 30 30 29 29 28 27 27 24 28 28 29 33 30 28 27 27 26 27 28 28 28 28 28 27 28 28 29 29
28 30 32 34 36 37 37 36 36 35 35 35 35 36 36 36 34 32 30 28 26 25 25 22 29 30 32 35 31 30 28 29 29 30 31 31 30 30 29 30 31 31 31
25 28 30 33 36 38 39 39 38 37 37 37 38 38 38 38 36 36 32 28 27 24 22 23 25 36 23 32 33 33 31 32 31 31 34 33 32 31 31 32 33 33 33
22 25 28 31 35 39 42 43 42 40 38 38 38 39 40 39 38 37 37 35 30 25 24 22 22 27 25 19 26 33 33 35 34 33 35 34 33 33 33 34 35 34 33
21 24 26 29 33 37 41 45 45 42 40 39 39 38 39 40 39 37 35 33 32 30 25 23 22 23 21 19 28 26 36 36 38 35 37 36 35 35 36 36 36 35 34
19 23 24 27 31 35 40 44 44 40 39 40 40 39 39 39 38 36 33 31 30 29 27 24 22 22 20 24 24 31 26 38 40 38 40 39 37 37 38 38 38 36 34
18 20 21 24 30 34 39 43 42 38 38 39 39 38 37 36 36 33 29 27 26 25 25 26 24 21 20 18 35 29 25 42 29 43 42 41 36 39 40 40 40 38 37
16 18 21 25 28 33 38 42 39 37 37 37 38 39 38 37 36 30 27 28 27 26 24 26 25 22 18 17 27 42 25 29 41 29 44 45 43 40 42 42 42 40 39
15 19 22 24 27 31 37 40 36 35 35 35 37 37 38 37 37 30 25 28 29 26 26 27 28 26 21 14 16 43 42 33 25 35 41 45 47 43 42 44 43 42 41
17 20 21 21 26 30 36 35 33 34 33 34 34 34 36 36 36 28 23 28 29 27 26 27 29 27 25 19 17 21 44 46 38 27 38 44 46 47 46 44 44 44 42
18 20 19 20 25 31 35 33 32 30 30 31 32 31 33 34 35 26 22 24 27 28 27 27 27 26 24 22 19 16 25 56 54 27 29 42 43 46 49 47 49 46 42
17 19 17 20 26 32 33 32 30 30 29 28 31 31 32 33 30 25 22 23 23 24 26 27 27 27 23 21 17 12 11 39 53 45 26 34 38 44 47 50 55 49 42
19 17 17 22 27 30 29 30 30 31 31 30 32 31 31 30 25 24 23 22 24 23 23 23 26 27 23 19 19 9 7 9 37 42 41 29 37 37 47 51 52 49 47
17 15 19 23 27 26 28 29 30 29 29 30 31 29 29 26 24 24 23 22 23 23 23 23 27 24 24 19 11 14 8 7 8 35 44 30 45 42 39 50 51 53 47
16 16 19 23 24 25 27 28 30 31 30 32 29 28 27 26 24 24 24 24 23 22 21 23 26 20 19 21 16 13 7 9 6 7 19 43 34 43 41 43 50 54 53
14 15 18 22 22 23 26 26 29 31 32 31 27 25 26 25 25 25 26 26 25 21 24 26 28 19 18 18 18 18 13 7 4 5 6 12 28 45 41 42 49 53 46
12 13 19 21 20 22 25 26 29 32 34 31 27 24 24 25 24 26 26 25 25 23 24 27 25 17 18 16 17 16 15 13 14 11 8 6 10 32 50 34 47 54 50
Wind_Direction
358 358 357 4 6 5 8 4 360 352 355 332 318 301 295 280 253 238 239 236 241 254 256 250 246 242 233 227 243 233 230 242 255 263 236 226 197 174 159 157 153 150 150
358 2 2 6 7 7 10 4 6 357 334 316 309 294 298 280 271 260 247 245 244 249 255 251 250 242 233 232 237 230 236 240 240 221 219 192 166 157 157 158 159 157 156
7 8 10 8 8 8 9 7 6 3 352 337 314 307 296 295 281 259 259 247 243 251 251 252 250 240 237 234 235 235 233 227 217 210 190 171 162 162 157 158 160 158 159
13 12 15 11 10 9 5 5 3 3 2 356 339 325 304 292 295 294 261 242 238 241 250 250 249 246 240 236 234 233 231 219 211 200 181 174 171 173 164 161 162 159 162
16 15 15 12 9 7 5 4 3 3 1 358 357 348 329 307 291 298 291 268 229 233 240 249 248 246 246 242 237 232 223 215 210 194 188 182 170 175 172 168 166 165 165
21 16 16 14 10 7 5 5 4 0 0 360 355 351 351 336 327 301 295 290 286 226 230 235 238 242 241 242 239 232 223 212 204 195 195 191 177 179 179 175 173 171 170
21 17 15 13 11 9 6 3 2 0 359 360 358 356 351 343 343 321 310 295 288 275 229 226 232 232 237 236 236 232 223 214 204 198 196 195 185 184 185 181 178 175 172
22 18 17 16 17 14 12 9 5 0 357 357 358 356 353 350 342 337 323 314 304 282 278 233 226 233 231 233 229 230 224 214 208 202 198 197 193 189 188 183 180 176 172
23 22 22 20 19 16 15 11 5 2 0 357 354 354 353 350 346 340 329 325 316 317 273 278 240 227 233 229 226 221 225 215 211 204 202 196 194 193 190 186 183 177 172
23 23 22 21 20 17 15 12 7 2 359 356 355 352 351 350 347 345 339 333 324 317 309 266 264 236 226 228 225 217 221 217 214 209 202 197 194 194 193 189 185 181 175
25 25 24 24 22 20 17 13 9 6 2 358 354 352 350 349 347 344 342 336 329 322 319 298 262 256 228 223 222 220 218 216 212 210 204 200 196 196 195 193 187 185 180
27 25 23 21 20 17 15 13 11 8 5 1 357 352 350 348 345 341 339 336 331 324 316 311 283 263 273 220 215 216 213 218 214 211 206 198 196 197 193 196 190 187 185
28 25 21 18 16 13 11 10 8 7 4 2 359 353 349 346 344 341 339 338 334 330 320 312 301 287 266 268 222 207 211 219 215 211 207 199 197 196 194 196 192 190 188
27 22 18 14 11 10 7 7 5 4 2 1 359 355 351 347 344 342 339 337 335 331 325 320 312 304 283 242 245 213 209 214 217 213 207 202 197 195 196 197 194 192 190
24 19 12 9 7 6 4 3 2 1 0 360 359 357 353 349 345 342 339 334 332 329 325 323 323 318 298 257 246 231 224 209 217 216 212 204 198 196 198 199 195 194 190
21 12 4 4 3 1 2 0 359 360 359 359 358 357 355 351 346 342 338 337 332 330 328 326 329 328 313 257 240 236 250 209 199 219 217 207 204 200 198 198 197 196 193
13 358 357 359 358 357 358 357 358 359 359 358 360 0 360 356 350 345 340 340 337 337 334 332 330 327 317 291 234 252 242 216 213 217 219 216 211 203 201 200 199 199 195
354 353 352 350 352 353 356 354 356 360 1 0 360 359 359 359 356 349 343 344 343 344 343 341 337 335 329 306 257 231 238 232 225 214 222 219 215 206 205 203 202 200 197
357 353 345 344 348 351 353 353 358 4 2 360 0 1 357 357 357 351 346 347 348 348 345 343 340 342 335 320 280 253 238 236 246 218 221 221 217 211 205 203 205 201 198
358 351 346 343 345 350 351 354 3 4 2 1 2 358 354 353 352 351 345 345 347 351 349 346 344 340 339 328 307 264 237 229 236 235 219 221 221 221 209 208 206 204 201
356 351 348 346 347 350 354 359 3 2 2 2 1 355 352 350 351 355 346 344 346 344 347 350 346 342 345 352 339 282 264 224 231 239 243 222 224 220 217 221 203 199 204
354 352 351 347 348 351 357 2 3 1 1 360 356 355 354 354 358 357 352 347 346 345 347 347 346 346 353 17 4 358 334 235 231 240 245 220 225 226 219 206 200 199 199
351 355 351 349 348 355 0 5 4 1 0 356 355 355 2 4 4 358 355 350 348 348 348 349 347 351 358 14 30 22 350 328 334 218 219 227 232 224 228 211 207 199 204
351 351 346 347 350 359 4 6 5 3 358 354 353 359 5 7 5 2 358 354 351 352 353 351 350 3 12 8 16 20 20 308 333 315 208 223 231 222 226 222 220 209 206
347 339 345 347 352 3 6 5 4 3 358 354 355 359 3 5 7 2 0 358 357 358 354 353 355 13 20 19 17 14 10 79 2 323 260 181 227 218 224 225 213 206 214
333 338 344 348 356 3 5 4 3 1 358 357 358 1 1 1 1 4 1 358 360 354 354 351 359 18 18 23 23 20 9 10 344 350 332 320 214 202 212 229 224 211 205